CDT,Max TemperatureF,Mean TemperatureF,Min TemperatureF,Max Dew PointF,MeanDew PointF,Min DewpointF,Max Humidity, Mean Humidity, Min Humidity, Max Sea Level PressureIn, Mean Sea Level PressureIn, Min Sea Level PressureIn, Max VisibilityMiles, Mean VisibilityMiles, Min VisibilityMiles, Max Wind SpeedMPH, Mean Wind SpeedMPH, Max Gust SpeedMPH,PrecipitationIn, CloudCover, Events, WindDirDegrees
2013-3-1,64,50,35,32,29,26,76,50,24,30.26,30.20,30.13,10,10,10,22,10,29,0.00,0,,318
2013-3-2,54,45,36,32,27,23,70,51,32,30.33,30.27,30.23,10,10,10,23,11,28,0.00,0,,328
2013-3-3,61,46,30,47,33,24,92,60,27,30.30,30.21,30.06,10,9,7,15,6,18,0.00,0,,177
2013-3-4,73,63,52,61,57,48,93,77,61,30.05,29.92,29.85,10,10,10,29,15,37,0.00,5,,184
2013-3-5,71,61,50,61,44,26,93,58,22,30.29,30.08,29.85,10,10,9,25,12,32,0.00,3,,325
2013-3-6,68,54,40,44,31,22,86,52,18,30.40,30.31,30.25,10,10,10,18,7,23,0.00,0,,6
2013-3-7,66,54,41,48,42,40,96,68,40,30.32,30.26,30.22,10,10,7,14,5,22,0.00,0,,115
2013-3-8,70,58,46,56,52,43,96,77,57,30.26,30.18,30.09,10,10,5,20,10,23,0.00,1,,109
2013-3-9,72,66,59,63,60,56,97,83,68,30.09,29.96,29.82,10,10,9,26,16,32,T,3,,134
2013-3-10,71,62,52,64,54,39,93,75,57,30.02,29.88,29.79,10,8,2,24,13,31,0.08,8,Rain,354
2013-3-11,62,51,39,39,33,31,76,54,32,30.11,30.04,29.97,10,10,10,24,9,30,T,2,,317
2013-3-12,70,53,36,43,34,28,89,56,23,30.26,30.17,30.09,10,10,10,14,3,15,0.00,0,,358
2013-3-13,72,56,40,46,37,29,100,61,22,30.44,30.36,30.27,10,10,6,16,5,26,0.00,0,,12
2013-3-14,69,56,43,46,42,36,93,63,32,30.44,30.37,30.31,10,10,10,15,7,21,0.00,0,,141
2013-3-15,74,60,46,58,51,45,100,75,49,30.30,30.21,30.09,10,8,0,22,8,29,0.00,0,Fog,190
2013-3-16,77,67,56,61,58,54,100,77,54,30.08,29.98,29.91,10,10,10,23,12,30,0.00,2,,177
2013-3-17,76,69,61,67,65,59,100,87,74,29.91,29.82,29.75,10,7,0,24,12,29,0.00,6,Fog,168
2013-3-18,83,74,64,70,66,64,100,79,58,29.90,29.80,29.75,10,4,0,16,7,20,0.00,5,Fog,190
2013-3-19,76,67,57,64,55,35,93,66,39,30.00,29.95,29.90,10,9,5,22,11,29,0.00,2,,87
2013-3-20,75,65,54,57,44,34,93,59,25,30.18,30.10,29.99,10,9,4,25,13,32,0.34,3,Rain,29
2013-3-21,70,60,50,59,48,33,78,58,37,30.04,29.91,29.76,10,10,10,25,14,32,0.00,4,,114
2013-3-22,80,73,66,70,66,61,100,86,71,29.78,29.73,29.68,10,9,4,20,11,24,0.00,7,,174
2013-3-23,78,72,65,70,67,64,100,85,69,29.76,29.67,29.58,8,3,0,12,5,15,0.02,7,Fog-Rain,117
2013-3-24,68,56,44,66,48,28,100,64,27,30.12,29.84,29.64,10,8,2,28,15,35,T,4,Rain,336
2013-3-25,62,51,39,33,25,18,70,45,20,30.35,30.24,30.14,13,10,10,21,12,28,0.00,0,,348
2013-3-26,62,49,35,29,23,17,70,45,20,30.48,30.39,30.32,10,10,10,20,8,26,0.00,0,,5
2013-3-27,66,53,39,43,37,28,80,57,34,30.40,30.33,30.26,10,10,10,15,8,25,0.00,0,,114
2013-3-28,70,62,53,56,52,45,93,75,57,30.32,30.26,30.23,10,10,10,18,9,24,0.00,6,,123
2013-3-29,74,64,54,60,58,54,100,79,57,30.27,30.21,30.17,10,10,6,17,9,26,0.00,4,,139
2013-3-30,76,69,61,63,61,58,93,77,60,30.16,30.07,30.00,10,10,10,20,9,25,0.00,3,,170
2013-3-31,81,71,60,67,62,55,100,81,62,30.00,29.96,29.88,10,6,0,28,10,33,0.67,6,Fog-Rain-Thunderstorm,168